PIMOHWEATHER Station Historical Data
Daily Summary for January 02, 2020 Units:  Metric    English   Both
Daily Weekly Monthly Yearly
  High: Low: Average:
Temperature: 32.0 °C 25.0 °C 27.9 °C
Dew Point: 27.0 °C 21.0 °C 23.2 °C
Humidity: 92% 62% 77%
Wind Speed: 39km/h 0km/h 13km/h
Wind Gust: 44km/h - -
Wind- - ENE
Pressure: 1018.1 hPa 1013.5 hPa -
Precipitation: 0.00 mm    
 
 
Tabular Data for January 02, 2020
Time Temperature Dew Point Pressure Wind Wind Speed Wind Gust Humidity Rainfall Rate (Hourly) solar
00:04 26.0 °C 24.0 °C 1016.1 hPa North 12 km/h 16 km/h 87% 0.00 mm 0.00 W/m2
00:09 26.0 °C 24.0 °C 1016.1 hPa North 10 km/h 20 km/h 87% 0.00 mm 0.00 W/m2
00:14 26.0 °C 24.0 °C 1016.1 hPa North 10 km/h 12 km/h 87% 0.00 mm 0.00 W/m2
00:19 26.0 °C 24.0 °C 1016.1 hPa North 10 km/h 16 km/h 87% 0.00 mm 0.00 W/m2
00:24 26.0 °C 24.0 °C 1016.1 hPa North 12 km/h 16 km/h 87% 0.00 mm 0.00 W/m2
00:29 26.0 °C 24.0 °C 1016.1 hPa North 11 km/h 16 km/h 87% 0.00 mm 0.00 W/m2
00:34 26.0 °C 24.0 °C 1016.1 hPa North 9 km/h 16 km/h 87% 0.00 mm 0.00 W/m2
00:39 26.0 °C 24.0 °C 1016.1 hPa North 13 km/h 16 km/h 87% 0.00 mm 0.00 W/m2
00:44 26.0 °C 24.0 °C 1016.1 hPa North 9 km/h 16 km/h 87% 0.00 mm 0.00 W/m2
00:49 26.0 °C 24.0 °C 1016.1 hPa North 9 km/h 12 km/h 87% 0.00 mm 0.00 W/m2
00:54 26.0 °C 24.0 °C 1016.1 hPa North 14 km/h 16 km/h 87% 0.00 mm 0.00 W/m2
00:59 26.0 °C 23.0 °C 1015.8 hPa North 9 km/h 12 km/h 86% 0.00 mm 0.00 W/m2
01:04 26.0 °C 24.0 °C 1016.0 hPa NNE 12 km/h 12 km/h 87% 0.00 mm 0.00 W/m2
01:09 26.0 °C 24.0 °C 1015.7 hPa North 6 km/h 8 km/h 87% 0.00 mm 0.00 W/m2
01:14 26.0 °C 23.0 °C 1015.7 hPa North 7 km/h 8 km/h 86% 0.00 mm 0.00 W/m2
01:19 26.0 °C 23.0 °C 1015.7 hPa North 10 km/h 12 km/h 87% 0.00 mm 0.00 W/m2
01:24 26.0 °C 23.0 °C 1015.7 hPa NNE 11 km/h 12 km/h 87% 0.00 mm 0.00 W/m2
01:29 26.0 °C 23.0 °C 1015.4 hPa NNE 10 km/h 12 km/h 87% 0.00 mm 0.00 W/m2
01:34 26.0 °C 23.0 °C 1015.4 hPa North 8 km/h 8 km/h 87% 0.00 mm 0.00 W/m2
01:39 26.0 °C 23.0 °C 1015.4 hPa NNE 7 km/h 8 km/h 87% 0.00 mm 0.00 W/m2
01:44 26.0 °C 23.0 °C 1015.4 hPa NNE 12 km/h 16 km/h 87% 0.00 mm 0.00 W/m2
01:49 26.0 °C 23.0 °C 1015.4 hPa NNE 13 km/h 16 km/h 87% 0.00 mm 0.00 W/m2
01:54 26.0 °C 23.0 °C 1015.4 hPa NE 8 km/h 12 km/h 87% 0.00 mm 0.00 W/m2
01:59 26.0 °C 24.0 °C 1015.4 hPa NE 10 km/h 12 km/h 88% 0.00 mm 0.00 W/m2
02:04 26.0 °C 24.0 °C 1015.4 hPa SSE 5 km/h 12 km/h 88% 0.00 mm 0.00 W/m2
02:09 26.0 °C 24.0 °C 1015.4 hPa NE 3 km/h 4 km/h 88% 0.00 mm 0.00 W/m2
02:14 26.0 °C 24.0 °C 1015.4 hPa NE 6 km/h 8 km/h 88% 0.00 mm 0.00 W/m2
02:19 26.0 °C 24.0 °C 1015.1 hPa East 3 km/h 8 km/h 89% 0.00 mm 0.00 W/m2
02:24 26.0 °C 24.0 °C 1015.0 hPa East 6 km/h 8 km/h 89% 0.00 mm 0.00 W/m2
02:29 26.0 °C 24.0 °C 1015.0 hPa NNE 8 km/h 12 km/h 89% 0.00 mm 0.00 W/m2
02:34 26.0 °C 24.0 °C 1015.0 hPa North 5 km/h 8 km/h 89% 0.00 mm 0.00 W/m2
02:39 26.0 °C 24.0 °C 1015.0 hPa NNE 7 km/h 8 km/h 89% 0.00 mm 0.00 W/m2
02:44 26.0 °C 24.0 °C 1015.0 hPa North 7 km/h 8 km/h 88% 0.00 mm 0.00 W/m2
02:49 26.0 °C 23.0 °C 1015.0 hPa NNE 8 km/h 12 km/h 88% 0.00 mm 0.00 W/m2
02:54 26.0 °C 23.0 °C 1015.0 hPa NNE 10 km/h 12 km/h 88% 0.00 mm 0.00 W/m2
02:59 26.0 °C 23.0 °C 1015.0 hPa North 12 km/h 16 km/h 88% 0.00 mm 0.00 W/m2
03:04 26.0 °C 23.0 °C 1015.0 hPa NNE 10 km/h 12 km/h 88% 0.00 mm 0.00 W/m2
03:09 25.0 °C 23.0 °C 1015.0 hPa NNE 9 km/h 12 km/h 89% 0.00 mm 0.00 W/m2
03:14 25.0 °C 24.0 °C 1015.0 hPa North 11 km/h 12 km/h 90% 0.00 mm 0.00 W/m2
03:19 25.0 °C 24.0 °C 1015.0 hPa NNE 10 km/h 12 km/h 90% 0.00 mm 0.00 W/m2
03:24 25.0 °C 24.0 °C 1015.0 hPa NNE 13 km/h 16 km/h 90% 0.00 mm 0.00 W/m2
03:29 25.0 °C 24.0 °C 1014.8 hPa North 12 km/h 16 km/h 90% 0.00 mm 0.00 W/m2
03:34 25.0 °C 23.0 °C 1015.0 hPa NNE 12 km/h 12 km/h 90% 0.00 mm 0.00 W/m2
03:39 25.0 °C 23.0 °C 1014.8 hPa North 10 km/h 12 km/h 91% 0.00 mm 0.00 W/m2
03:44 25.0 °C 23.0 °C 1015.0 hPa North 10 km/h 12 km/h 91% 0.00 mm 0.00 W/m2
03:49 25.0 °C 23.0 °C 1015.0 hPa NNE 8 km/h 8 km/h 91% 0.00 mm 0.00 W/m2
03:54 25.0 °C 23.0 °C 1015.0 hPa NNE 11 km/h 12 km/h 91% 0.00 mm 0.00 W/m2
03:59 25.0 °C 23.0 °C 1015.0 hPa NNW 10 km/h 12 km/h 91% 0.00 mm 0.00 W/m2
04:04 25.0 °C 23.0 °C 1015.0 hPa NNW 10 km/h 12 km/h 90% 0.00 mm 0.00 W/m2
04:09 25.0 °C 23.0 °C 1015.0 hPa North 10 km/h 12 km/h 90% 0.00 mm 0.00 W/m2
04:14 25.0 °C 23.0 °C 1015.0 hPa North 15 km/h 16 km/h 90% 0.00 mm 0.00 W/m2
04:19 25.0 °C 23.0 °C 1015.0 hPa North 11 km/h 16 km/h 90% 0.00 mm 0.00 W/m2
04:24 25.0 °C 23.0 °C 1015.4 hPa North 11 km/h 16 km/h 90% 0.00 mm 0.00 W/m2
04:29 25.0 °C 23.0 °C 1015.4 hPa NNE 10 km/h 16 km/h 90% 0.00 mm 0.00 W/m2
04:34 25.0 °C 23.0 °C 1015.4 hPa NE 5 km/h 8 km/h 90% 0.00 mm 0.00 W/m2
04:39 25.0 °C 23.0 °C 1015.4 hPa West 2 km/h 4 km/h 90% 0.00 mm 0.00 W/m2
04:44 25.0 °C 23.0 °C 1015.4 hPa Calm   4 km/h 90% 0.00 mm 0.00 W/m2
04:49 25.0 °C 23.0 °C 1015.4 hPa ESE 1 km/h 4 km/h 89% 0.00 mm 0.00 W/m2
04:54 25.0 °C 23.0 °C 1015.4 hPa ENE 2 km/h 8 km/h 89% 0.00 mm 0.00 W/m2
04:59 25.0 °C 23.0 °C 1015.7 hPa NNE 5 km/h 8 km/h 89% 0.00 mm 0.00 W/m2
05:04 25.0 °C 23.0 °C 1015.7 hPa NNE 4 km/h 4 km/h 89% 0.00 mm 0.00 W/m2
05:09 25.0 °C 23.0 °C 1015.7 hPa Calm   4 km/h 89% 0.00 mm 0.00 W/m2
05:14 25.0 °C 23.0 °C 1015.7 hPa NE 4 km/h 4 km/h 90% 0.00 mm 0.00 W/m2
05:19 25.0 °C 23.0 °C 1015.7 hPa ESE 1 km/h 4 km/h 90% 0.00 mm 0.00 W/m2
05:24 25.0 °C 23.0 °C 1015.7 hPa Calm   4 km/h 90% 0.00 mm 0.00 W/m2
05:29 25.0 °C 23.0 °C 1016.1 hPa North 4 km/h 8 km/h 90% 0.00 mm 0.00 W/m2
05:34 25.0 °C 23.0 °C 1016.1 hPa North 5 km/h 8 km/h 90% 0.00 mm 0.00 W/m2
05:39 25.0 °C 23.0 °C 1016.0 hPa North 5 km/h 8 km/h 90% 0.00 mm 0.00 W/m2
05:44 25.0 °C 23.0 °C 1016.1 hPa North 8 km/h 12 km/h 90% 0.00 mm 0.00 W/m2
05:49 25.0 °C 23.0 °C 1016.1 hPa North 9 km/h 12 km/h 90% 0.00 mm 0.00 W/m2
05:54 25.0 °C 23.0 °C 1016.1 hPa North 8 km/h 8 km/h 91% 0.00 mm 0.00 W/m2
05:59 25.0 °C 23.0 °C 1016.1 hPa NNE 10 km/h 12 km/h 90% 0.00 mm 0.00 W/m2
06:04 25.0 °C 23.0 °C 1016.1 hPa North 8 km/h 8 km/h 91% 0.00 mm 0.00 W/m2
06:09 25.0 °C 23.0 °C 1016.1 hPa North 5 km/h 8 km/h 91% 0.00 mm 0.00 W/m2
06:14 25.0 °C 23.0 °C 1016.1 hPa North 6 km/h 8 km/h 91% 0.00 mm 0.00 W/m2
06:19 25.0 °C 23.0 °C 1016.4 hPa North 6 km/h 8 km/h 91% 0.00 mm 0.22 W/m2
06:24 25.0 °C 23.0 °C 1016.4 hPa NNW 2 km/h 4 km/h 91% 0.00 mm 2.99 W/m2
06:29 25.0 °C 23.0 °C 1016.4 hPa NNW 5 km/h 8 km/h 91% 0.00 mm 6.18 W/m2
06:34 25.0 °C 23.0 °C 1016.4 hPa NW 6 km/h 8 km/h 91% 0.00 mm 10.32 W/m2
06:39 25.0 °C 23.0 °C 1016.8 hPa NW 3 km/h 4 km/h 91% 0.00 mm 17.92 W/m2
06:44 25.0 °C 23.0 °C 1016.8 hPa NNE 5 km/h 8 km/h 92% 0.00 mm 21.28 W/m2
06:49 25.0 °C 23.0 °C 1016.8 hPa North 8 km/h 12 km/h 91% 0.00 mm 25.51 W/m2
06:54 25.0 °C 23.0 °C 1017.0 hPa North 6 km/h 8 km/h 91% 0.00 mm 29.48 W/m2
06:59 25.0 °C 23.0 °C 1017.1 hPa NNW 9 km/h 12 km/h 91% 0.00 mm 31.93 W/m2
07:04 25.0 °C 23.0 °C 1017.1 hPa North 9 km/h 12 km/h 90% 0.00 mm 34.53 W/m2
07:09 25.0 °C 23.0 °C 1017.1 hPa NNW 10 km/h 12 km/h 90% 0.00 mm 38.07 W/m2
07:14 25.0 °C 23.0 °C 1017.1 hPa North 10 km/h 12 km/h 89% 0.00 mm 40.52 W/m2
07:19 25.0 °C 23.0 °C 1017.1 hPa NNE 6 km/h 8 km/h 89% 0.00 mm 43.27 W/m2
07:24 26.0 °C 23.0 °C 1017.4 hPa North 10 km/h 12 km/h 87% 0.00 mm 46.33 W/m2
07:29 26.0 °C 23.0 °C 1017.4 hPa NNW 9 km/h 12 km/h 87% 0.00 mm 46.83 W/m2
07:34 26.0 °C 23.0 °C 1017.4 hPa NNW 14 km/h 16 km/h 86% 0.00 mm 47.53 W/m2
07:39 26.0 °C 23.0 °C 1017.4 hPa North 15 km/h 16 km/h 86% 0.00 mm 44.25 W/m2
07:44 26.0 °C 23.0 °C 1017.4 hPa North 12 km/h 16 km/h 87% 0.00 mm 54.19 W/m2
07:49 26.0 °C 23.0 °C 1017.7 hPa North 12 km/h 16 km/h 86% 0.00 mm 54.45 W/m2
07:54 27.0 °C 24.0 °C 1017.4 hPa NNE 9 km/h 16 km/h 85% 0.00 mm 57.11 W/m2
07:59 27.0 °C 23.0 °C 1017.8 hPa NNE 13 km/h 16 km/h 84% 0.00 mm 60.23 W/m2
08:04 26.0 °C 23.0 °C 1017.8 hPa North 12 km/h 16 km/h 84% 0.00 mm 66.42 W/m2
08:09 27.0 °C 24.0 °C 1017.8 hPa North 7 km/h 8 km/h 83% 0.00 mm 73.69 W/m2
08:14 28.0 °C 24.0 °C 1017.8 hPa NNE 6 km/h 8 km/h 82% 0.00 mm 83.36 W/m2
08:19 29.0 °C 24.0 °C 1017.8 hPa East 5 km/h 8 km/h 79% 0.00 mm 91.31 W/m2
08:24 29.0 °C 24.0 °C 1018.0 hPa South 10 km/h 12 km/h 77% 0.00 mm 102.15 W/m2
08:29 28.0 °C 24.0 °C 1018.1 hPa North 14 km/h 16 km/h 79% 0.00 mm 105.94 W/m2
08:34 28.0 °C 24.0 °C 1018.1 hPa NNE 10 km/h 12 km/h 79% 0.00 mm 113.74 W/m2
08:39 28.0 °C 24.0 °C 1017.7 hPa North 13 km/h 16 km/h 78% 0.00 mm 122.28 W/m2
08:44 28.0 °C 24.0 °C 1017.7 hPa NNE 5 km/h 8 km/h 78% 0.00 mm 132.53 W/m2
08:49 29.0 °C 24.0 °C 1017.6 hPa North 9 km/h 12 km/h 77% 0.00 mm 144.47 W/m2
08:54 29.0 °C 24.0 °C 1017.6 hPa NNE 7 km/h 12 km/h 76% 0.00 mm 154.55 W/m2
08:59 29.0 °C 24.0 °C 1017.4 hPa NNE 6 km/h 12 km/h 73% 0.00 mm 162.65 W/m2
09:04 30.0 °C 24.0 °C 1017.7 hPa NNE 12 km/h 16 km/h 74% 0.00 mm 172.00 W/m2
09:09 30.0 °C 24.0 °C 1017.7 hPa NNE 17 km/h 20 km/h 73% 0.00 mm 181.44 W/m2
09:14 30.0 °C 24.0 °C 1017.6 hPa North 9 km/h 12 km/h 71% 0.00 mm 194.61 W/m2
09:19 30.0 °C 24.0 °C 1017.7 hPa NE 10 km/h 16 km/h 71% 0.00 mm 207.94 W/m2
09:24 30.0 °C 24.0 °C 1017.7 hPa NNE 12 km/h 16 km/h 71% 0.00 mm 226.05 W/m2
09:29 30.0 °C 24.0 °C 1017.6 hPa North 17 km/h 20 km/h 70% 0.00 mm 224.26 W/m2
09:34 30.0 °C 24.0 °C 1017.7 hPa NNE 14 km/h 20 km/h 70% 0.00 mm 242.78 W/m2
09:39 30.0 °C 24.0 °C 1017.7 hPa NE 19 km/h 24 km/h 69% 0.00 mm 255.51 W/m2
09:44 30.0 °C 24.0 °C 1017.7 hPa NNE 15 km/h 20 km/h 69% 0.00 mm 262.36 W/m2
09:49 30.0 °C 24.0 °C 1017.6 hPa NNE 12 km/h 16 km/h 69% 0.00 mm 306.10 W/m2
09:54 31.0 °C 24.0 °C 1017.6 hPa NE 9 km/h 12 km/h 68% 0.00 mm 329.54 W/m2
09:59 31.0 °C 24.0 °C 1017.3 hPa NE 16 km/h 20 km/h 67% 0.00 mm 329.47 W/m2
10:04 31.0 °C 24.0 °C 1017.3 hPa NNE 18 km/h 20 km/h 69% 0.00 mm 312.15 W/m2
10:09 30.0 °C 24.0 °C 1017.3 hPa NNE 17 km/h 20 km/h 69% 0.00 mm 319.81 W/m2
10:14 30.0 °C 24.0 °C 1017.3 hPa North 22 km/h 28 km/h 70% 0.00 mm 320.03 W/m2
10:19 30.0 °C 24.0 °C 1017.3 hPa North 18 km/h 28 km/h 70% 0.00 mm 324.99 W/m2
10:24 30.0 °C 24.0 °C 1017.3 hPa NNE 19 km/h 20 km/h 71% 0.00 mm 277.23 W/m2
10:29 30.0 °C 24.0 °C 1017.3 hPa North 24 km/h 32 km/h 72% 0.00 mm 261.16 W/m2
10:34 30.0 °C 24.0 °C 1017.3 hPa North 29 km/h 32 km/h 73% 0.00 mm 378.19 W/m2
10:39 30.0 °C 24.0 °C 1017.0 hPa NNE 19 km/h 20 km/h 73% 0.00 mm 322.38 W/m2
10:44 30.0 °C 24.0 °C 1017.0 hPa North 22 km/h 28 km/h 73% 0.00 mm 410.78 W/m2
10:49 31.0 °C 25.0 °C 1017.0 hPa North 13 km/h 20 km/h 71% 0.00 mm 413.86 W/m2
10:54 30.0 °C 24.0 °C 1016.7 hPa NNE 22 km/h 24 km/h 72% 0.00 mm 388.02 W/m2
10:59 31.0 °C 24.0 °C 1017.0 hPa NNE 15 km/h 20 km/h 71% 0.00 mm 411.17 W/m2
11:04 31.0 °C 25.0 °C 1016.7 hPa NNE 19 km/h 20 km/h 70% 0.00 mm 431.74 W/m2
11:09 31.0 °C 25.0 °C 1016.7 hPa NNE 21 km/h 28 km/h 71% 0.00 mm 397.03 W/m2
11:14 30.0 °C 25.0 °C 1016.7 hPa North 20 km/h 24 km/h 72% 0.00 mm 401.45 W/m2
11:19 31.0 °C 25.0 °C 1016.7 hPa NNE 28 km/h 32 km/h 72% 0.00 mm 458.63 W/m2
11:24 30.0 °C 24.0 °C 1016.7 hPa North 19 km/h 24 km/h 72% 0.00 mm 418.58 W/m2
11:29 31.0 °C 25.0 °C 1016.3 hPa ENE 12 km/h 16 km/h 70% 0.00 mm 412.44 W/m2
11:34 31.0 °C 24.0 °C 1016.3 hPa North 25 km/h 28 km/h 70% 0.00 mm 407.64 W/m2
11:39 31.0 °C 24.0 °C 1016.1 hPa NE 12 km/h 20 km/h 71% 0.00 mm 415.89 W/m2
11:44 31.0 °C 24.0 °C 1016.3 hPa NNE 21 km/h 28 km/h 70% 0.00 mm 438.47 W/m2
11:49 32.0 °C 25.0 °C 1016.3 hPa NE 17 km/h 24 km/h 68% 0.00 mm 485.91 W/m2
11:54 31.0 °C 24.0 °C 1016.0 hPa NNE 22 km/h 28 km/h 68% 0.00 mm 524.06 W/m2
11:59 31.0 °C 24.0 °C 1016.0 hPa NE 18 km/h 24 km/h 69% 0.00 mm 337.84 W/m2
12:04 31.0 °C 24.0 °C 1016.0 hPa NE 22 km/h 24 km/h 70% 0.00 mm 372.70 W/m2
12:09 31.0 °C 26.0 °C 1016.0 hPa NNE 20 km/h 24 km/h 79% 0.00 mm 222.21 W/m2
12:14 31.0 °C 27.0 °C 1016.0 hPa NNE 24 km/h 32 km/h 82% 0.00 mm 174.48 W/m2
12:19 30.0 °C 27.0 °C 1016.0 hPa NNE 21 km/h 24 km/h 86% 0.00 mm 162.60 W/m2
12:24 30.0 °C 27.0 °C 1015.7 hPa NE 9 km/h 16 km/h 86% 0.00 mm 345.03 W/m2
12:29 29.0 °C 26.0 °C 1015.7 hPa NE 17 km/h 24 km/h 82% 0.00 mm 438.99 W/m2
12:34 30.0 °C 24.0 °C 1015.4 hPa NNE 34 km/h 40 km/h 76% 0.00 mm 435.07 W/m2
12:39 31.0 °C 24.0 °C 1015.3 hPa North 25 km/h 28 km/h 70% 0.00 mm 446.89 W/m2
12:44 31.0 °C 24.0 °C 1015.3 hPa NNE 22 km/h 24 km/h 68% 0.00 mm 415.84 W/m2
12:49 31.0 °C 24.0 °C 1015.3 hPa NE 18 km/h 28 km/h 68% 0.00 mm 451.73 W/m2
12:54 31.0 °C 24.0 °C 1015.3 hPa East 12 km/h 24 km/h 68% 0.00 mm 459.56 W/m2
12:59 31.0 °C 24.0 °C 1015.0 hPa NE 19 km/h 28 km/h 67% 0.00 mm 504.31 W/m2
13:04 31.0 °C 24.0 °C 1014.9 hPa North 26 km/h 32 km/h 69% 0.00 mm 243.30 W/m2
13:09 31.0 °C 25.0 °C 1014.9 hPa NNE 23 km/h 24 km/h 70% 0.00 mm 521.22 W/m2
13:14 31.0 °C 24.0 °C 1014.9 hPa NNE 25 km/h 32 km/h 70% 0.00 mm 325.76 W/m2
13:19 31.0 °C 24.0 °C 1014.7 hPa North 32 km/h 36 km/h 70% 0.00 mm 221.91 W/m2
13:24 30.0 °C 25.0 °C 1014.9 hPa North 29 km/h 40 km/h 72% 0.00 mm 203.62 W/m2
13:29 30.0 °C 25.0 °C 1014.6 hPa North 33 km/h 40 km/h 72% 0.00 mm 196.03 W/m2
13:34 30.0 °C 24.0 °C 1014.3 hPa North 26 km/h 32 km/h 72% 0.00 mm 204.52 W/m2
13:39 30.0 °C 24.0 °C 1014.3 hPa North 25 km/h 32 km/h 71% 0.00 mm 384.35 W/m2
13:44 30.0 °C 24.0 °C 1014.6 hPa NNE 29 km/h 32 km/h 72% 0.00 mm 292.62 W/m2
13:49 30.0 °C 24.0 °C 1014.3 hPa NE 26 km/h 32 km/h 71% 0.00 mm 259.23 W/m2
13:54 30.0 °C 24.0 °C 1014.3 hPa NE 19 km/h 32 km/h 69% 0.00 mm 231.92 W/m2
13:59 31.0 °C 24.0 °C 1014.3 hPa NE 15 km/h 20 km/h 67% 0.00 mm 225.71 W/m2
14:04 31.0 °C 24.0 °C 1014.3 hPa NNE 19 km/h 24 km/h 69% 0.00 mm 201.67 W/m2
14:09 30.0 °C 24.0 °C 1014.2 hPa NNE 17 km/h 20 km/h 69% 0.00 mm 169.20 W/m2
14:14 30.0 °C 24.0 °C 1014.3 hPa NNE 24 km/h 32 km/h 68% 0.00 mm 162.82 W/m2
14:19 30.0 °C 24.0 °C 1013.9 hPa NNE 26 km/h 32 km/h 68% 0.00 mm 168.84 W/m2
14:24 30.0 °C 24.0 °C 1013.9 hPa NNE 17 km/h 20 km/h 68% 0.00 mm 194.49 W/m2
14:29 30.0 °C 24.0 °C 1013.9 hPa NNE 27 km/h 32 km/h 68% 0.00 mm 369.67 W/m2
14:34 30.0 °C 23.0 °C 1014.0 hPa NNE 18 km/h 28 km/h 68% 0.00 mm 327.20 W/m2
14:39 31.0 °C 24.0 °C 1013.9 hPa NE 20 km/h 28 km/h 67% 0.00 mm 403.56 W/m2
14:44 31.0 °C 24.0 °C 1013.9 hPa NNE 19 km/h 24 km/h 66% 0.00 mm 471.85 W/m2
14:49 31.0 °C 24.0 °C 1013.9 hPa NNE 15 km/h 24 km/h 65% 0.00 mm 453.28 W/m2
14:54 31.0 °C 24.0 °C 1013.9 hPa NNE 20 km/h 28 km/h 65% 0.00 mm 445.82 W/m2
14:59 31.0 °C 24.0 °C 1013.6 hPa NE 26 km/h 32 km/h 65% 0.00 mm 429.81 W/m2
15:04 31.0 °C 24.0 °C 1013.6 hPa ENE 18 km/h 24 km/h 65% 0.00 mm 438.08 W/m2
15:09 32.0 °C 24.0 °C 1013.6 hPa NNE 23 km/h 28 km/h 64% 0.00 mm 438.20 W/m2
15:14 32.0 °C 23.0 °C 1013.6 hPa North 18 km/h 28 km/h 63% 0.00 mm 392.45 W/m2
15:19 31.0 °C 23.0 °C 1013.6 hPa NE 25 km/h 32 km/h 65% 0.00 mm 230.26 W/m2
15:24 31.0 °C 24.0 °C 1013.6 hPa NE 27 km/h 40 km/h 65% 0.00 mm 394.80 W/m2
15:29 31.0 °C 23.0 °C 1013.6 hPa NE 39 km/h 44 km/h 65% 0.00 mm 404.10 W/m2
15:34 31.0 °C 23.0 °C 1013.5 hPa North 27 km/h 40 km/h 64% 0.00 mm 394.14 W/m2
15:39 31.0 °C 23.0 °C 1013.6 hPa NNE 27 km/h 36 km/h 64% 0.00 mm 328.27 W/m2
15:44 31.0 °C 23.0 °C 1013.6 hPa NNE 25 km/h 36 km/h 64% 0.00 mm 128.34 W/m2
15:49 30.0 °C 23.0 °C 1013.6 hPa NNE 24 km/h 36 km/h 63% 0.00 mm 369.25 W/m2
15:54 31.0 °C 23.0 °C 1013.6 hPa NE 28 km/h 36 km/h 62% 0.00 mm 364.61 W/m2
15:59 30.0 °C 22.0 °C 1013.6 hPa ENE 17 km/h 32 km/h 63% 0.00 mm 282.37 W/m2
16:04 30.0 °C 23.0 °C 1013.6 hPa NNE 25 km/h 32 km/h 64% 0.00 mm 233.05 W/m2
16:09 30.0 °C 23.0 °C 1013.9 hPa SSE 10 km/h 20 km/h 64% 0.00 mm 305.10 W/m2
16:14 30.0 °C 23.0 °C 1013.9 hPa NNE 22 km/h 28 km/h 64% 0.00 mm 303.22 W/m2
16:19 30.0 °C 23.0 °C 1014.1 hPa NNE 16 km/h 28 km/h 64% 0.00 mm 287.66 W/m2
16:24 31.0 °C 23.0 °C 1013.9 hPa NNE 15 km/h 20 km/h 63% 0.00 mm 273.42 W/m2
16:29 31.0 °C 23.0 °C 1013.9 hPa NE 12 km/h 20 km/h 64% 0.00 mm 258.72 W/m2
16:34 31.0 °C 23.0 °C 1013.9 hPa ENE 9 km/h 16 km/h 64% 0.00 mm 236.57 W/m2
16:39 31.0 °C 23.0 °C 1013.9 hPa NE 14 km/h 16 km/h 63% 0.00 mm 215.39 W/m2
16:44 30.0 °C 23.0 °C 1013.9 hPa NNE 27 km/h 32 km/h 64% 0.00 mm 71.72 W/m2
16:49 30.0 °C 23.0 °C 1013.9 hPa NNE 17 km/h 24 km/h 64% 0.00 mm 53.60 W/m2
16:54 30.0 °C 23.0 °C 1013.9 hPa NE 20 km/h 24 km/h 65% 0.00 mm 48.96 W/m2
16:59 30.0 °C 23.0 °C 1014.3 hPa NE 20 km/h 24 km/h 65% 0.00 mm 45.16 W/m2
17:04 30.0 °C 23.0 °C 1014.3 hPa NE 17 km/h 24 km/h 65% 0.00 mm 40.38 W/m2
17:09 30.0 °C 23.0 °C 1014.3 hPa NNE 15 km/h 20 km/h 66% 0.00 mm 34.13 W/m2
17:14 30.0 °C 23.0 °C 1014.3 hPa NE 12 km/h 16 km/h 66% 0.00 mm 25.76 W/m2
17:19 29.0 °C 23.0 °C 1014.3 hPa North 17 km/h 20 km/h 67% 0.00 mm 20.28 W/m2
17:24 29.0 °C 23.0 °C 1014.3 hPa North 17 km/h 20 km/h 68% 0.00 mm 17.91 W/m2
17:29 29.0 °C 23.0 °C 1014.3 hPa North 14 km/h 20 km/h 68% 0.00 mm 12.60 W/m2
17:34 29.0 °C 23.0 °C 1014.3 hPa NNE 11 km/h 12 km/h 68% 0.00 mm 7.70 W/m2
17:39 29.0 °C 23.0 °C 1014.3 hPa North 15 km/h 20 km/h 68% 0.00 mm 4.48 W/m2
17:44 29.0 °C 22.0 °C 1014.6 hPa NNE 12 km/h 16 km/h 68% 0.00 mm 1.49 W/m2
17:49 29.0 °C 22.0 °C 1014.6 hPa NNE 17 km/h 20 km/h 68% 0.00 mm 0.00 W/m2
17:54 29.0 °C 22.0 °C 1014.6 hPa North 15 km/h 20 km/h 69% 0.00 mm 0.00 W/m2
17:59 29.0 °C 22.0 °C 1014.6 hPa North 13 km/h 16 km/h 69% 0.00 mm 0.00 W/m2
18:04 29.0 °C 22.0 °C 1014.6 hPa North 15 km/h 20 km/h 69% 0.00 mm 0.00 W/m2
18:09 28.0 °C 22.0 °C 1014.6 hPa North 17 km/h 20 km/h 69% 0.00 mm 0.00 W/m2
18:14 28.0 °C 22.0 °C 1014.6 hPa NNE 13 km/h 16 km/h 70% 0.00 mm 0.00 W/m2
18:19 28.0 °C 22.0 °C 1015.0 hPa NNE 15 km/h 16 km/h 70% 0.00 mm 0.00 W/m2
18:24 28.0 °C 22.0 °C 1015.0 hPa North 13 km/h 16 km/h 70% 0.00 mm 0.00 W/m2
18:29 28.0 °C 22.0 °C 1015.0 hPa North 12 km/h 16 km/h 70% 0.00 mm 0.00 W/m2
18:34 28.0 °C 22.0 °C 1015.0 hPa North 12 km/h 16 km/h 71% 0.00 mm 0.00 W/m2
18:39 28.0 °C 22.0 °C 1015.3 hPa North 15 km/h 16 km/h 71% 0.00 mm 0.00 W/m2
18:44 28.0 °C 22.0 °C 1015.3 hPa North 12 km/h 16 km/h 71% 0.00 mm 0.00 W/m2
18:49 28.0 °C 22.0 °C 1015.3 hPa North 13 km/h 16 km/h 71% 0.00 mm 0.00 W/m2
18:54 28.0 °C 22.0 °C 1015.3 hPa North 10 km/h 12 km/h 71% 0.00 mm 0.00 W/m2
18:59 28.0 °C 22.0 °C 1015.3 hPa North 14 km/h 16 km/h 72% 0.00 mm 0.00 W/m2
19:04 28.0 °C 22.0 °C 1015.3 hPa North 10 km/h 12 km/h 72% 0.00 mm 0.00 W/m2
19:09 28.0 °C 22.0 °C 1015.7 hPa North 13 km/h 16 km/h 72% 0.00 mm 0.00 W/m2
19:14 28.0 °C 22.0 °C 1015.7 hPa North 9 km/h 12 km/h 72% 0.00 mm 0.00 W/m2
19:19 28.0 °C 22.0 °C 1015.7 hPa North 9 km/h 12 km/h 72% 0.00 mm 0.00 W/m2
19:24 28.0 °C 22.0 °C 1016.0 hPa North 9 km/h 12 km/h 73% 0.00 mm 0.00 W/m2
19:29 28.0 °C 22.0 °C 1016.0 hPa North 9 km/h 12 km/h 73% 0.00 mm 0.00 W/m2
19:34 28.0 °C 22.0 °C 1016.0 hPa North 12 km/h 16 km/h 73% 0.00 mm 0.00 W/m2
19:39 27.0 °C 22.0 °C 1016.0 hPa North 14 km/h 16 km/h 73% 0.00 mm 0.00 W/m2
19:44 27.0 °C 22.0 °C 1016.0 hPa North 17 km/h 20 km/h 74% 0.00 mm 0.00 W/m2
19:49 27.0 °C 22.0 °C 1016.0 hPa North 13 km/h 20 km/h 74% 0.00 mm 0.00 W/m2
19:54 27.0 °C 22.0 °C 1016.0 hPa North 13 km/h 16 km/h 74% 0.00 mm 0.00 W/m2
19:59 27.0 °C 22.0 °C 1016.0 hPa NNE 14 km/h 16 km/h 74% 0.00 mm 0.00 W/m2
20:04 27.0 °C 22.0 °C 1016.0 hPa North 14 km/h 16 km/h 74% 0.00 mm 0.00 W/m2
20:09 27.0 °C 22.0 °C 1016.0 hPa North 10 km/h 16 km/h 74% 0.00 mm 0.00 W/m2
20:14 27.0 °C 22.0 °C 1016.4 hPa North 8 km/h 12 km/h 74% 0.00 mm 0.00 W/m2
20:19 27.0 °C 22.0 °C 1016.4 hPa North 10 km/h 12 km/h 75% 0.00 mm 0.00 W/m2
20:24 27.0 °C 22.0 °C 1016.4 hPa North 9 km/h 12 km/h 75% 0.00 mm 0.00 W/m2
20:29 27.0 °C 22.0 °C 1016.6 hPa North 10 km/h 12 km/h 75% 0.00 mm 0.00 W/m2
20:34 27.0 °C 22.0 °C 1016.4 hPa North 10 km/h 12 km/h 75% 0.00 mm 0.00 W/m2
20:39 27.0 °C 22.0 °C 1016.4 hPa North 10 km/h 12 km/h 75% 0.00 mm 0.00 W/m2
20:44 27.0 °C 22.0 °C 1016.6 hPa North 9 km/h 12 km/h 75% 0.00 mm 0.00 W/m2
20:49 27.0 °C 22.0 °C 1016.4 hPa North 10 km/h 12 km/h 75% 0.00 mm 0.00 W/m2
20:54 27.0 °C 22.0 °C 1016.4 hPa North 10 km/h 12 km/h 75% 0.00 mm 0.00 W/m2
20:59 27.0 °C 22.0 °C 1016.4 hPa NNE 14 km/h 16 km/h 75% 0.00 mm 0.00 W/m2
21:04 27.0 °C 22.0 °C 1016.4 hPa North 11 km/h 16 km/h 76% 0.00 mm 0.00 W/m2
21:09 27.0 °C 22.0 °C 1016.4 hPa North 11 km/h 16 km/h 76% 0.00 mm 0.00 W/m2
21:14 27.0 °C 22.0 °C 1016.7 hPa North 12 km/h 16 km/h 76% 0.00 mm 0.00 W/m2
21:19 27.0 °C 22.0 °C 1016.4 hPa North 9 km/h 12 km/h 76% 0.00 mm 0.00 W/m2
21:24 27.0 °C 22.0 °C 1016.7 hPa North 10 km/h 12 km/h 76% 0.00 mm 0.00 W/m2
21:29 27.0 °C 22.0 °C 1016.7 hPa North 10 km/h 12 km/h 76% 0.00 mm 0.00 W/m2
21:34 27.0 °C 22.0 °C 1016.7 hPa North 9 km/h 12 km/h 76% 0.00 mm 0.00 W/m2
21:39 27.0 °C 22.0 °C 1016.7 hPa North 10 km/h 12 km/h 76% 0.00 mm 0.00 W/m2
21:44 27.0 °C 22.0 °C 1016.4 hPa North 9 km/h 12 km/h 76% 0.00 mm 0.00 W/m2
21:49 27.0 °C 22.0 °C 1016.4 hPa North 10 km/h 12 km/h 76% 0.00 mm 0.00 W/m2
21:54 27.0 °C 22.0 °C 1016.4 hPa NNE 10 km/h 12 km/h 76% 0.00 mm 0.00 W/m2
21:59 27.0 °C 22.0 °C 1016.4 hPa North 8 km/h 8 km/h 76% 0.00 mm 0.00 W/m2
22:04 27.0 °C 22.0 °C 1016.4 hPa North 6 km/h 8 km/h 76% 0.00 mm 0.00 W/m2
22:09 27.0 °C 22.0 °C 1016.4 hPa North 5 km/h 8 km/h 76% 0.00 mm 0.00 W/m2
22:14 27.0 °C 22.0 °C 1016.4 hPa NNW 6 km/h 8 km/h 77% 0.00 mm 0.00 W/m2
22:19 27.0 °C 22.0 °C 1016.1 hPa NNW 6 km/h 8 km/h 77% 0.00 mm 0.00 W/m2
22:24 27.0 °C 22.0 °C 1016.1 hPa North 10 km/h 12 km/h 77% 0.00 mm 0.00 W/m2
22:29 27.0 °C 22.0 °C 1016.1 hPa North 7 km/h 8 km/h 77% 0.00 mm 0.00 W/m2
22:34 27.0 °C 22.0 °C 1016.1 hPa NNW 8 km/h 12 km/h 77% 0.00 mm 0.00 W/m2
22:39 27.0 °C 22.0 °C 1016.1 hPa North 9 km/h 12 km/h 76% 0.00 mm 0.00 W/m2
22:44 27.0 °C 22.0 °C 1016.1 hPa North 9 km/h 12 km/h 76% 0.00 mm 0.00 W/m2
22:49 27.0 °C 22.0 °C 1016.1 hPa North 8 km/h 12 km/h 76% 0.00 mm 0.00 W/m2
22:54 27.0 °C 22.0 °C 1016.1 hPa NNE 11 km/h 12 km/h 76% 0.00 mm 0.00 W/m2
22:59 27.0 °C 22.0 °C 1016.1 hPa North 9 km/h 12 km/h 75% 0.00 mm 0.00 W/m2
23:04 27.0 °C 22.0 °C 1016.1 hPa NNE 7 km/h 12 km/h 75% 0.00 mm 0.00 W/m2
23:09 27.0 °C 22.0 °C 1016.1 hPa North 7 km/h 8 km/h 75% 0.00 mm 0.00 W/m2
23:14 27.0 °C 22.0 °C 1016.1 hPa North 10 km/h 12 km/h 75% 0.00 mm 0.00 W/m2
23:19 27.0 °C 22.0 °C 1016.1 hPa North 8 km/h 8 km/h 75% 0.00 mm 0.00 W/m2
23:24 27.0 °C 22.0 °C 1016.1 hPa North 10 km/h 12 km/h 75% 0.00 mm 0.00 W/m2
23:29 27.0 °C 22.0 °C 1016.1 hPa North 10 km/h 12 km/h 75% 0.00 mm 0.00 W/m2
23:34 26.0 °C 22.0 °C 1016.1 hPa North 9 km/h 12 km/h 75% 0.00 mm 0.00 W/m2
23:39 26.0 °C 22.0 °C 1016.1 hPa North 6 km/h 8 km/h 75% 0.00 mm 0.00 W/m2
23:44 26.0 °C 22.0 °C 1015.7 hPa North 8 km/h 12 km/h 75% 0.00 mm 0.00 W/m2
23:49 26.0 °C 22.0 °C 1016.0 hPa North 10 km/h 16 km/h 75% 0.00 mm 0.00 W/m2
23:54 26.0 °C 21.0 °C 1016.1 hPa NNE 10 km/h 12 km/h 74% 0.00 mm 0.00 W/m2
23:59 26.0 °C 21.0 °C 1016.1 hPa NNE 6 km/h 8 km/h 74% 0.00 mm 0.00 W/m2
PIMOHWEATHER Philippines
Compliments of Weather Underground - 2 mb